• In United Kingdom
  • List of Countries
  • For 7 days
  • Water Temperature
  • Satellite Maps
  • Weather Map
  • Weather Widgets
  • user-avatar
    Login

    Hourly Weather Francistown

    Today, 20 September, Thursday

    Time Temperature Precipitation Wind Pressure Humidity
    00:00 +28°C° 0 mm 2 mps 677 mmHg 10%
    01:00 +28°C° 0 mm 2 mps 677 mmHg 10%
    02:00 +27°C° 0 mm 2 mps 677 mmHg 10%
    03:00 +26°C° 0 mm 2 mps 677 mmHg 11%
    04:00 +25°C° 0 mm 2 mps 677 mmHg 12%
    05:00 +24°C° 0 mm 2 mps 677 mmHg 13%
    06:00 +26°C° 0 mm 2 mps 678 mmHg 12%
    07:00 +27°C° 0 mm 2 mps 678 mmHg 12%
    08:00 +29°C° 0 mm 2 mps 679 mmHg 11%
    09:00 +30°C° 0 mm 3 mps 679 mmHg 12%
    10:00 +33°C° 0 mm 4 mps 680 mmHg 12%
    11:00 +35°C° 0 mm 5 mps 680 mmHg 12%
    12:00 +35°C° 0 mm 6 mps 680 mmHg 13%
    13:00 +36°C° 0 mm 7 mps 679 mmHg 15%
    14:00 +37°C° 0 mm 8 mps 679 mmHg 16%
    15:00 +35°C° 0 mm 8 mps 678 mmHg 22%
    16:00 +34°C° 0 mm 9 mps 678 mmHg 27%
    17:00 +32°C° 0 mm 9 mps 678 mmHg 32%
    18:00 +29°C° 0 mm 9 mps 678 mmHg 39%
    19:00 +27°C° 0 mm 9 mps 679 mmHg 46%
    20:00 +24°C° 0 mm 9 mps 679 mmHg 54%
    21:00 +23°C° 0 mm 9 mps 679 mmHg 58%
    22:00 +22°C° 0 mm 9 mps 680 mmHg 63%
    23:00 +21°C° 0 mm 8 mps 680 mmHg 68%

    Tomorrow, 21 September, Friday

    Time Temperature Precipitation Wind Pressure Humidity
    00:00 +20°C° 0 mm 8 mps 680 mmHg 69%
    01:00 +20°C° 0 mm 8 mps 680 mmHg 71%
    02:00 +20°C° 0 mm 8 mps 679 mmHg 72%
    03:00 +20°C° 0 mm 7 mps 679 mmHg 73%
    04:00 +19°C° 0 mm 6 mps 679 mmHg 73%
    05:00 +19°C° 0 mm 6 mps 679 mmHg 74%
    06:00 +20°C° 0 mm 6 mps 679 mmHg 71%
    07:00 +21°C° 0 mm 6 mps 680 mmHg 67%
    08:00 +22°C° 0 mm 7 mps 680 mmHg 64%
    09:00 +24°C° 0 mm 6 mps 680 mmHg 55%
    10:00 +28°C° 0 mm 6 mps 681 mmHg 45%
    11:00 +30°C° 0 mm 5 mps 681 mmHg 36%
    12:00 +33°C° 0 mm 5 mps 680 mmHg 32%
    13:00 +34°C° 0 mm 5 mps 680 mmHg 28%
    14:00 +35°C° 0 mm 4 mps 679 mmHg 24%
    15:00 +35°C° 0 mm 5 mps 678 mmHg 25%
    16:00 +34°C° 0 mm 5 mps 678 mmHg 26%
    17:00 +34°C° 0 mm 6 mps 677 mmHg 26%
    18:00 +32°C° 0 mm 6 mps 677 mmHg 31%
    19:00 +29°C° 0 mm 6 mps 678 mmHg 36%
    20:00 +27°C° 0 mm 6 mps 678 mmHg 40%
    21:00 +26°C° 0 mm 6 mps 678 mmHg 45%
    22:00 +25°C° 0 mm 5 mps 679 mmHg 50%
    23:00 +23°C° 0 mm 5 mps 679 mmHg 55%

    Day after tomorrow, 22 September, Saturday

    Time Temperature Precipitation Wind Pressure Humidity
    00:00 +23°C° 0 mm 5 mps 679 mmHg 58%
    01:00 +22°C° 0 mm 5 mps 678 mmHg 61%
    02:00 +22°C° 0 mm 5 mps 678 mmHg 64%
    03:00 +21°C° 0 mm 4 mps 678 mmHg 65%
    04:00 +21°C° 0 mm 4 mps 678 mmHg 67%
    05:00 +21°C° 0 mm 4 mps 678 mmHg 68%
    06:00 +22°C° 0 mm 4 mps 678 mmHg 63%
    07:00 +23°C° 0 mm 5 mps 679 mmHg 58%
    08:00 +25°C° 0 mm 5 mps 680 mmHg 53%
    09:00 +27°C° 0 mm 5 mps 680 mmHg 45%
    10:00 +30°C° 0 mm 5 mps 680 mmHg 37%
    11:00 +33°C° 0 mm 4 mps 680 mmHg 29%
    12:00 +34°C° 0 mm 4 mps 679 mmHg 26%
    13:00 +35°C° 0 mm 4 mps 679 mmHg 23%
    14:00 +36°C° 0 mm 4 mps 678 mmHg 19%
    15:00 +36°C° 0 mm 5 mps 677 mmHg 19%
    16:00 +35°C° 0 mm 5 mps 677 mmHg 20%
    17:00 +35°C° 0 mm 6 mps 677 mmHg 20%
    18:00 +33°C° 0 mm 6 mps 677 mmHg 21%
    19:00 +32°C° 0 mm 6 mps 677 mmHg 23%
    20:00 +29°C° 0 mm 6 mps 678 mmHg 24%
    21:00 +28°C° 0 mm 6 mps 678 mmHg 25%
    22:00 +27°C° 0 mm 5 mps 678 mmHg 25%
    23:00 +27°C° 0 mm 5 mps 679 mmHg 26%

    23 September, Sunday

    Time Temperature Precipitation Wind Pressure Humidity
    00:00 +26°C° 0 mm 5 mps 678 mmHg 26%
    01:00 +25°C° 0 mm 5 mps 678 mmHg 27%
    02:00 +23°C° 0 mm 5 mps 677 mmHg 27%
    03:00 +23°C° 0 mm 5 mps 677 mmHg 29%
    04:00 +22°C° 0 mm 4 mps 678 mmHg 31%
    05:00 +22°C° 0 mm 4 mps 678 mmHg 32%
    06:00 +23°C° 0 mm 4 mps 678 mmHg 30%
    07:00 +25°C° 0 mm 5 mps 679 mmHg 28%
    08:00 +26°C° 0 mm 6 mps 680 mmHg 26%
    09:00 +28°C° 0 mm 6 mps 680 mmHg 22%
    10:00 +32°C° 0 mm 5 mps 680 mmHg 19%
    11:00 +34°C° 0 mm 5 mps 680 mmHg 15%
    12:00 +35°C° 0 mm 5 mps 679 mmHg 15%
    13:00 +36°C° 0 mm 4 mps 678 mmHg 14%
    14:00 +37°C° 0 mm 4 mps 677 mmHg 13%
    15:00 +36°C° 0 mm 5 mps 677 mmHg 14%
    16:00 +36°C° 0 mm 5 mps 677 mmHg 14%
    17:00 +35°C° 0 mm 6 mps 677 mmHg 15%
    18:00 +34°C° 0 mm 6 mps 677 mmHg 16%
    19:00 +32°C° 0 mm 6 mps 677 mmHg 17%
    20:00 +29°C° 0 mm 6 mps 678 mmHg 18%
    21:00 +28°C° 0 mm 6 mps 678 mmHg 19%
    22:00 +27°C° 0 mm 6 mps 678 mmHg 20%
    23:00 +26°C° 0 mm 5 mps 678 mmHg 21%

    24 September, Monday

    Time Temperature Precipitation Wind Pressure Humidity
    00:00 +25°C° 0 mm 5 mps 677 mmHg 23%
    01:00 +23°C° 0 mm 4 mps 677 mmHg 25%
    02:00 +24°C° 0 mm 3 mps 677 mmHg 27%
    03:00 +22°C° 0 mm 3 mps 676 mmHg 29%
    04:00 +21°C° 0 mm 3 mps 676 mmHg 31%
    05:00 +20°C° 0 mm 3 mps 676 mmHg 32%
    06:00 +22°C° 0 mm 3 mps 677 mmHg 30%
    07:00 +24°C° 0 mm 3 mps 677 mmHg 28%
    08:00 +26°C° 0 mm 4 mps 678 mmHg 26%
    09:00 +28°C° 0 mm 4 mps 678 mmHg 22%
    10:00 +31°C° 0 mm 3 mps 678 mmHg 18%
    11:00 +35°C° 0 mm 3 mps 678 mmHg 14%
    12:00 +36°C° 0 mm 3 mps 677 mmHg 13%
    13:00 +37°C° 0 mm 3 mps 677 mmHg 12%
    14:00 +37°C° 0 mm 3 mps 676 mmHg 11%
    15:00 +37°C° 0 mm 3 mps 676 mmHg 11%
    16:00 +37°C° 0 mm 4 mps 675 mmHg 11%
    17:00 +37°C° 0 mm 4 mps 675 mmHg 12%
    18:00 +35°C° 0 mm 5 mps 676 mmHg 15%
    19:00 +33°C° 0 mm 5 mps 676 mmHg 18%
    20:00 +30°C° 0 mm 6 mps 676 mmHg 21%
    21:00 +29°C° 0 mm 6 mps 676 mmHg 21%
    22:00 +28°C° 0 mm 6 mps 677 mmHg 22%
    23:00 +27°C° 0 mm 5 mps 677 mmHg 23%

    25 September, Tuesday

    Time Temperature Precipitation Wind Pressure Humidity
    00:00 +27°C° 0 mm 5 mps 676 mmHg 25%
    01:00 +26°C° 0 mm 4 mps 676 mmHg 27%
    02:00 +25°C° 0 mm 4 mps 676 mmHg 29%
    03:00 +23°C° 0 mm 4 mps 676 mmHg 31%
    04:00 +23°C° 0 mm 4 mps 675 mmHg 34%
    05:00 +22°C° 0 mm 4 mps 675 mmHg 36%
    06:00 +25°C° 0 mm 4 mps 676 mmHg 34%
    07:00 +26°C° 0 mm 5 mps 676 mmHg 32%
    08:00 +28°C° 0 mm 5 mps 677 mmHg 29%
    09:00 +32°C° 0 mm 4 mps 677 mmHg 25%
    10:00 +34°C° 0 mm 4 mps 677 mmHg 20%
    11:00 +37°C° 0 mm 3 mps 678 mmHg 15%
    12:00 +38°C° 0 mm 3 mps 677 mmHg 14%
    13:00 +39°C° 0 mm 2 mps 676 mmHg 12%
    14:00 +40°C° 0 mm 2 mps 676 mmHg 11%
    15:00 +39°C° 0 mm 2 mps 676 mmHg 11%
    16:00 +39°C° 0 mm 3 mps 675 mmHg 11%
    17:00 +39°C° 0 mm 3 mps 675 mmHg 11%
    18:00 +37°C° 0 mm 4 mps 675 mmHg 13%
    19:00 +35°C° 0 mm 4 mps 676 mmHg 15%
    20:00 +34°C° 0 mm 5 mps 676 mmHg 17%
    21:00 +33°C° 0 mm 5 mps 676 mmHg 20%
    22:00 +32°C° 0 mm 5 mps 676 mmHg 22%
    23:00 +30°C° 0 mm 5 mps 676 mmHg 25%
    Show more